CYGFM01 (41887 NORAD) Tracking and Keplerian Element Data

This shows tracking and keplerian element data for the satellite.

Feedback or suggestion? Click here.




ElementValue
Catalog41887
NameCYGFM01
Epoch Orbit45167
Epoch Day34.97176918
Epoch Year2025
RAAN268.7687
Inclination34.9441
Eccentricity0.0007445
Argument of Perigee149.4859
Mean Anonmoly210.6293
Mean Motion15.36111323
Decay Rate0.00017204
L11 41887U 16078D 25034.97176918 .00017204 00000+0 47564-3 0 9994
L22 41887 34.9441 268.7687 0007445 149.4859 210.6293 15.36111323451671



Live tracking and technical data element details for CYGFM01 (NORAD 41887). CYGFM01 can be tracked NOW for your location showing map with azimuth and elevation plus other details from your city location.







IsCatalogInMostPopularTable: catalog: 41887, numindb: 828
Update: records affected: 1



GetName: 41887 CYGFM01

Hit Count: updated at: Mon, 28 Apr 2025 20:02:23 GMT